Location: Bow
(51.5261°N, 0.0167°W)
Time: 13:30:45
(UTC+00:00)

Okean 1-7 Rocket - Pass Details

Date: 18 September 2020
Orbit: 616 x 649 km, 82.5° (Epoch: 25 October)

Event Time Altitude Azimuth Distance (km) Brightness Sun altitude
Rises 20:40:20 0° 352° (N) 2,981 7.7 -23.2°
Reaches altitude 10° 20:42:39 10° 357° (N) 2,067 6.7 -23.5°
Enters shadow 20:46:40 53° 48° (NE) 806 4.0 -24.0°
